Regional Weather Roundup
Issued by NWS

Home | Current Version | Previous Version | Text Only | Print | Product List | Glossary Off
Versions: 1 2 3 4 5 6 7 8 9 10 11 12 13 14 15 16 17 18 19 20 21 22 23 24 25 26 27 28 29 30 31 32 33 34 35 36 37 38 39 40 41 42 43 44 45 46 47 48 49 50

000
ASUS45 KPSR 211610
RWRAZ

ARIZONA REGIONAL HOURLY WEATHER ROUNDUP
NATIONAL WEATHER SERVICE PHOENIX AZ
900 AM MST FRI NOV 21 2014

NOTE: FAIR INDICATES FEW OR NO CLOUDS BELOW 12,000 FEET WITH NO
SIGNIFICANT WEATHER AND/OR OBSTRUCTIONS TO VISIBILITY.

AZZ001>003-036-211700-
NORTHWEST ARIZONA

CITY           SKY/WX    TMP DP  RH WIND       PRES   REMARKS
BULLHEAD CITY  SUNNY     57  18  21 CALM      29.94S
KINGMAN        MOSUNNY   51  14  22 E9        29.97R
$$

AZZ004>008-015-016-018-211700-
NORTH CENTRAL ARIZONA

CITY           SKY/WX    TMP DP  RH WIND       PRES   REMARKS
GRAND CANYON   CLOUDY    32  17  54 CALM      30.05R
PRESCOTT       CLOUDY    42  14  32 CALM      30.02R
FLAGSTAFF      CLOUDY    33  19  56 CALM      30.05R
PAYSON         PTSUNNY   43  14  31 CALM      30.04R
$$

AZZ009>014-017-211700-
NORTHEAST ARIZONA

CITY           SKY/WX    TMP DP  RH WIND       PRES   REMARKS
WINSLOW        CLOUDY    38  18  44 SE9       30.05R WCI  31
SAINT JOHNS    CLOUDY    30  22  72 CALM      30.05R
SHOW LOW       CLOUDY    36  21  55 CALM      30.06R
$$

AZZ023-211700-
GREATER PHOENIX AREA

CITY           SKY/WX    TMP DP  RH WIND       PRES   REMARKS
PHOENIX        CLOUDY    57  25  29 E3        29.91R
BUCKEYE          N/A     54  21  28 CALM      29.92S
GLENDALE       PTSUNNY   54  30  40 CALM      29.94R
LUKE AFB       PTSUNNY   54  28  36 NE5       29.92S
DEER VALLEY    CLOUDY    55  21  26 CALM      29.92R
SCOTTSDALE     CLOUDY    56  28  34 CALM      29.93R
MESA-FALCON    PTSUNNY   54  19  26 N9        29.93R
MESA-GATEWAY   CLOUDY    48  23  37 SE5       29.95R
CHANDLER       PTSUNNY   54  25  32 VRB6      29.93R
$$

AZZ027-028-211700-
SOUTHWEST MARICOPA COUNTY AND PINAL COUNTY

CITY           SKY/WX    TMP DP  RH WIND       PRES   REMARKS
CASA GRANDE    CLOUDY    52  21  30 MISG      29.93S
GILA BEND      PTSUNNY   55  23  28 NE5       29.92R
$$

AZZ503-504-507>509-211700-
SOUTHEAST ARIZONA

CITY           SKY/WX    TMP DP  RH WIND       PRES   REMARKS
TUCSON         CLOUDY    53  17  24 S12       29.97S
DAVIS-MONTHAN  CLOUDY    53  18  25 S7        29.96R
RYAN FIELD       N/A     52  27  37 E7        29.96S
NOGALES        CLOUDY    50  19  29 CALM      30.00R
SIERRA VISTA   PTSUNNY   52  12  20 N6        30.02R
DOUGLAS        PTSUNNY   43  22  43 NW3       30.02S
SAFFORD        CLOUDY    47  21  35 SE8       29.99R
$$

AZZ020-021-025-026-031-211700-
SOUTHWEST ARIZONA

CITY           SKY/WX    TMP DP  RH WIND       PRES   REMARKS
YUMA           PTSUNNY   60  34  37 VRB3      29.92R
$$

CAZ031-033-041-043-047-048-061-211700-
SOUTHERN CALIFORNIA

CITY           SKY/WX    TMP DP  RH WIND       PRES   REMARKS
DOWNTOWN L.A.  SUNNY     62  45  53 W5        29.95R
L.A. AIRPORT   MOSUNNY   63  49  60 NW7       29.97R
SAN DIEGO      PTSUNNY   64  54  69 N7        30.00R
BURBANK        SUNNY     60  45  57 W9        29.96R
ONTARIO        PTSUNNY   58  52  80 CALM      29.97R
RIVERSIDE      PTSUNNY   56  54  93 CALM      29.98R FOG
PALM SPRINGS   MOSUNNY   57  50  77 CALM      29.94R
EL CENTRO NAS  LGT RAIN  58  53  84 W18       29.94R
IMPERIAL       CLOUDY    59  52  77 NW15      29.92R
BLYTHE         MOSUNNY   55  24  30 N3        29.91R
NEEDLES        MOSUNNY   56  16  20 CALM      29.93R
$$

NVZ020-UTZ003-211700-
SOUTHERN NEVADA-UTAH

CITY           SKY/WX    TMP DP  RH WIND       PRES   REMARKS
LAS VEGAS      MOSUNNY   55  18  23 SW6       29.94R
SALT LAKE CITY MOSUNNY   33  24  69 S3        30.04R
$$

NMZ009-TXZ055-211700-
NEW MEXICO-WEST TEXAS

CITY           SKY/WX    TMP DP  RH WIND       PRES   REMARKS
ALBUQUERQUE    PTSUNNY   37  14  38 N8        30.08S WCI  31
EL PASO        MOSUNNY   50  23  34 CALM      30.06R
$$


........................KEY........................
SKY/WX - SKY CONDITION/WEATHER
TMP    - TEMPERATURE IN FAHRENHEIT
DP     - DEW POINT IN FAHRENHEIT
RH     - RELATIVE HUMIDITY IN PERCENT
WIND   - DIRECTION AND SPEED IN MILES PER HOUR (MPH)
VRB    - VARIABLE WIND DIRECTION
PRES   - MEAN SEA LEVEL PRESSURE IN INCHES OF MERCURY
         F - FALLING PRESSURE   R - RISING PRESSURE
         S - STEADY PRESSURE
VSB    - VISIBILITY IN MILES
HX     - HEAT INDEX IN FAHRENHEIT
WCI    - WIND CHILL INDEX IN FAHRENHEIT
TC     - TEMPERATURE IN CELSIUS WHICH IS ALSO KNOWN AS
         TEMPERATURE IN CENTIGRADE
AFB    - AIR FORCE BASE
         LUKE AFB IS LUKE AIR FORCE BASE
         DAVIS-MONTHAN IS DAVIS-MONTHAN AIR FORCE BASE
NAS    - NAVAL AIR STATION
         EL CENTRO NAS IS EL CENTRO NAVAL AIR STATION
N/A    - NOT AVAILABLE



USA.gov is the U.S. government's official web portal to all federal, state and local government web resources and services.